| time (UTC) | temp F | wind direction | speed knots | gust knots | rain 1hr in | rain 24hr in | rain mn in | humidity % | barometer mb |
| 20260831133005 | 71 | 253 | 7.8 | 18.2 | 0.00 | 0.58 | 0.58 | 71 | 1014.6 |
| 20260831131504 | 70 | 266 | 5.2 | 19.1 | 0.00 | 0.58 | 0.58 | 75 | 1014.9 |
| 20260831131004 | 70 | 287 | 8.7 | 20.9 | 0.00 | 0.58 | 0.58 | 73 | 1014.6 |
| 20260831130505 | 69 | 289 | 7.8 | 12.2 | 0.00 | 0.58 | 0.58 | 75 | 1014.6 |
| 20260831130004 | 69 | 158 | 4.3 | 8.7 | 0.00 | 0.58 | 0.58 | 77 | 1014.6 |
| 20260831124505 | 69 | 267 | 2.6 | 6.1 | 0.00 | 0.58 | 0.58 | 78 | 1014.9 |
| 20260831124004 | 70 | 286 | 2.6 | 6.1 | 0.00 | 0.58 | 0.58 | 75 | 1014.6 |
| 20260831123504 | 71 | 301 | 3.5 | 8.7 | 0.00 | 0.58 | 0.58 | 74 | 1014.6 |
| 20260831121504 | 71 | 33 | 2.6 | 13.0 | 0.00 | 0.58 | 0.58 | 75 | 1014.6 |
| 20260831121004 | 71 | 329 | 2.6 | 8.7 | 0.00 | 0.58 | 0.58 | 76 | 1014.6 |
| 20260831120504 | 71 | 91 | 2.6 | 7.0 | 0.01 | 0.58 | 0.58 | 76 | 1014.6 |
| 20260831120005 | 71 | 302 | 2.6 | 11.3 | 0.02 | 0.58 | 0.58 | 77 | 1014.6 |
| 20260831114504 | 70 | 149 | 2.6 | 8.7 | 0.02 | 0.58 | 0.58 | 82 | 1014.6 |
| 20260831114004 | 69 | 193 | 4.3 | 7.0 | 0.02 | 0.58 | 0.58 | 81 | 1014.7 |
| 20260831113504 | 68 | 286 | 2.6 | 6.1 | 0.02 | 0.58 | 0.58 | 84 | 1014.9 |
| 20260831113004 | 68 | 257 | 1.7 | 6.1 | 0.02 | 0.58 | 0.58 | 86 | 1014.9 |
| 20260831111504 | 65 | 219 | 3.5 | 6.1 | 0.02 | 0.58 | 0.58 | 88 | 1014.9 |
| 20260831111004 | 65 | 295 | 1.7 | 4.3 | 0.02 | 0.58 | 0.58 | 88 | 1015.0 |
| 20260831110505 | 67 | 300 | 4.3 | 7.0 | 0.01 | 0.57 | 0.57 | 85 | 1014.9 |
| 20260831110004 | 68 | 297 | 0.9 | 6.1 | 0.00 | 0.56 | 0.56 | 81 | 1014.6 |
| 20260831104504 | 68 | 163 | 1.7 | 6.1 | 0.00 | 0.56 | 0.56 | 80 | 1014.6 |
| 20260831104004 | 69 | 296 | 1.7 | 4.3 | 0.00 | 0.56 | 0.56 | 80 | 1014.6 |
| 20260831103504 | 67 | 295 | 2.6 | 4.3 | 0.00 | 0.56 | 0.56 | 83 | 1014.7 |
| 20260831101504 | 66 | 254 | 3.5 | 6.1 | 0.00 | 0.56 | 0.56 | 86 | 1014.6 |
| 20260831101004 | 67 | 291 | 1.7 | 7.0 | 0.00 | 0.56 | 0.56 | 84 | 1014.8 |
| 20260831100504 | 68 | 211 | 1.7 | 4.3 | 0.00 | 0.56 | 0.56 | 82 | 1014.6 |
| 20260831100004 | 68 | 218 | 1.7 | 8.7 | 0.00 | 0.56 | 0.56 | 82 | 1014.6 |
| 20260831094504 | 69 | 265 | 1.7 | 8.7 | 0.00 | 0.56 | 0.56 | 81 | 1014.6 |
| 20260831093504 | 69 | 267 | 1.7 | 12.2 | 0.00 | 0.56 | 0.56 | 82 | 1014.9 |
| 20260831093006 | 68 | 180 | 5.2 | 12.2 | 0.00 | 0.56 | 0.56 | 81 | 1014.9 |
| 20260831090507 | 66 | 250 | 1.7 | 6.1 | 0.00 | 0.56 | 0.56 | 85 | 1014.9 |
| 20260831090006 | 66 | 310 | 1.7 | 7.0 | 0.00 | 0.56 | 0.56 | 86 | 1014.9 |
| 20260831084506 | 66 | 59 | 2.6 | 6.1 | 0.00 | 0.56 | 0.56 | 87 | 1014.7 |
| 20260831084006 | 66 | 341 | 1.7 | 4.3 | 0.00 | 0.56 | 0.56 | 87 | 1014.6 |
| 20260831083505 | 65 | 238 | 1.7 | 6.1 | 0.00 | 0.56 | 0.56 | 88 | 1014.6 |
| 20260831083006 | 65 | 268 | 3.5 | 7.0 | 0.00 | 0.56 | 0.56 | 88 | 1014.6 |
| 20260831081005 | 65 | 278 | 1.7 | 7.0 | 0.00 | 0.56 | 0.56 | 88 | 1014.6 |
| 20260831080506 | 65 | 300 | 1.7 | 7.0 | 0.00 | 0.56 | 0.56 | 88 | 1014.6 |
| 20260831080005 | 65 | 293 | 2.6 | 6.1 | 0.00 | 0.56 | 0.56 | 88 | 1014.3 |
| 20260831074506 | 65 | 255 | 1.7 | 4.3 | 0.00 | 0.56 | 0.56 | 88 | 1014.3 |
| 20260831074005 | 65 | 293 | 2.6 | 4.3 | 0.00 | 0.56 | 0.56 | 88 | 1014.6 |
| 20260831073505 | 65 | 292 | 1.7 | 2.6 | 0.00 | 0.56 | 0.56 | 88 | 1014.6 |
| 20260831073005 | 66 | 253 | 1.7 | 4.3 | 0.00 | 0.56 | 0.56 | 88 | 1014.6 |
| 20260831071506 | 64 | 277 | 0.9 | 2.6 | 0.00 | 0.56 | 0.56 | 89 | 1014.6 |
| 20260831071005 | 64 | 292 | 1.7 | 2.6 | 0.00 | 0.56 | 0.56 | 89 | 1014.2 |
| 20260831070506 | 63 | 314 | 0.9 | 1.7 | 0.00 | 0.56 | 0.56 | 90 | 1014.6 |
| 20260831070005 | 63 | 275 | 0.0 | 2.6 | 0.00 | 0.56 | 0.56 | 90 | 1014.6 |
| 20260831064506 | 63 | 289 | 2.6 | 4.3 | 0.00 | 0.56 | 0.56 | 89 | 1014.6 |
| 20260831064005 | 63 | 282 | 2.6 | 4.3 | 0.00 | 0.56 | 0.56 | 89 | 1014.6 |
| 20260831063505 | 64 | 285 | 0.9 | 4.3 | 0.00 | 0.56 | 0.56 | 90 | 1014.6 |
| 20260831061505 | 62 | 273 | 1.7 | 2.6 | 0.00 | 0.56 | 0.56 | 95 | 1014.2 |
| 20260831061007 | 61 | 291 | 1.7 | 2.6 | 0.00 | 0.56 | 0.56 | 95 | 1013.9 |
| 20260831060507 | 61 | 281 | 0.9 | 1.7 | 0.00 | 0.56 | 0.56 | 95 | 1014.2 |
| 20260831060007 | 61 | 267 | 0.0 | 2.6 | 0.00 | 0.56 | 0.56 | 95 | 1014.2 |
| 20260831054506 | 61 | 284 | 0.9 | 2.6 | 0.00 | 0.56 | 0.56 | 96 | 1014.2 |
| 20260831054005 | 61 | 282 | 1.7 | 2.6 | 0.00 | 0.56 | 0.56 | 96 | 1014.4 |
| 20260831053006 | 60 | 269 | 0.0 | 2.6 | 0.00 | 0.56 | 0.56 | 96 | 1014.2 |
| 20260831051505 | 60 | 274 | 0.0 | 2.6 | 0.00 | 0.56 | 0.56 | 96 | 1013.9 |
| 20260831051005 | 60 | 275 | 1.7 | 4.3 | 0.00 | 0.56 | 0.56 | 96 | 1013.9 |
| 20260831050506 | 60 | 270 | 1.7 | 4.3 | 0.00 | 0.56 | 0.56 | 96 | 1013.8 |
| 20260831050005 | 60 | 280 | 1.7 | 4.3 | 0.00 | 0.56 | 0.56 | 97 | 1013.9 |
| 20260831044505 | 60 | 269 | 1.7 | 4.3 | 0.00 | 0.56 | 0.56 | 97 | 1013.6 |
| 20260831043505 | 60 | 283 | 1.7 | 2.6 | 0.00 | 0.56 | 0.56 | 97 | 1013.5 |
| 20260831043005 | 60 | 267 | 0.9 | 1.7 | 0.00 | 0.56 | 0.56 | 97 | 1013.5 |
| 20260831041505 | 60 | 272 | 0.0 | 1.7 | 0.00 | 0.56 | 0.56 | 97 | 1013.5 |
| 20260831040005 | 60 | 267 | 0.9 | 1.7 | 0.00 | 0.56 | 0.56 | 97 | 1013.5 |
| 20260831034505 | 60 | 258 | 0.0 | 1.7 | 0.00 | 0.56 | 0.56 | 98 | 1013.5 |
| 20260831034005 | 60 | 261 | 0.0 | 1.7 | 0.00 | 0.56 | 0.56 | 98 | 1013.5 |
| 20260831033505 | 60 | 267 | 0.9 | 1.7 | 0.00 | 0.56 | 0.56 | 98 | 1013.5 |
| 20260831033005 | 61 | 274 | 0.0 | 2.6 | 0.00 | 0.56 | 0.56 | 98 | 1013.2 |
| 20260831031505 | 61 | 265 | 0.9 | 2.6 | 0.00 | 0.56 | 0.56 | 98 | 1013.2 |
| 20260831031005 | 61 | 279 | 0.9 | 1.7 | 0.00 | 0.56 | 0.56 | 98 | 1013.2 |
| 20260831024005 | 61 | 270 | 0.0 | 1.7 | 0.00 | 0.56 | 0.56 | 98 | 1013.2 |
| 20260831023506 | 61 | 281 | 0.9 | 1.7 | 0.00 | 0.56 | 0.56 | 98 | 1013.2 |
| 20260831023005 | 62 | 276 | 0.0 | 1.7 | 0.00 | 0.56 | 0.56 | 98 | 1012.9 |
| 20260831021505 | 62 | 278 | 0.0 | 0.0 | 0.00 | 0.56 | 0.56 | 98 | 1012.9 |
| 20260831020005 | 61 | 274 | 0.0 | 0.0 | 0.00 | 0.56 | 0.56 | 98 | 1012.9 |
| 20260831014505 | 61 | 275 | 0.0 | 0.0 | 0.02 | 0.56 | 0.56 | 97 | 1013.2 |
| 20260831014005 | 61 | 275 | 0.0 | 0.0 | 0.06 | 0.56 | 0.56 | 97 | 1012.9 |
| 20260831013506 | 61 | 276 | 0.0 | 0.0 | 0.09 | 0.56 | 0.56 | 97 | 1013.2 |
| 20260831013005 | 61 | 274 | 0.0 | 0.0 | 0.14 | 0.56 | 0.56 | 97 | 1012.9 |
| 20260831011505 | 61 | 279 | 0.0 | 0.0 | 0.26 | 0.56 | 0.56 | 97 | 1013.2 |
| 20260831011005 | 60 | 246 | 0.0 | 0.0 | 0.29 | 0.56 | 0.56 | 97 | 1013.2 |
| 20260831010506 | 61 | 268 | 0.0 | 0.0 | 0.31 | 0.56 | 0.56 | 97 | 1013.2 |
| 20260831010005 | 61 | 267 | 0.0 | 0.0 | 0.32 | 0.56 | 0.56 | 97 | 1013.1 |
| 20260831004505 | 60 | 283 | 0.0 | 1.7 | 0.37 | 0.54 | 0.54 | 97 | 1013.2 |
| 20260831004006 | 60 | 264 | 0.0 | 0.0 | 0.34 | 0.50 | 0.50 | 97 | 1013.5 |
| 20260831003505 | 60 | 269 | 0.0 | 0.0 | 0.31 | 0.47 | 0.47 | 97 | 1013.2 |
| 20260831001005 | 61 | 315 | 0.0 | 0.0 | 0.16 | 0.27 | 0.27 | 96 | 1013.2 |
| 20260831000505 | 61 | 77 | 0.0 | 0.0 | 0.15 | 0.25 | 0.25 | 96 | 1013.5 |
| 20260831000005 | 61 | 278 | 0.0 | 1.7 | 0.15 | 0.24 | 0.24 | 96 | 1013.3 |
| 20260830234505 | 61 | 252 | 0.0 | 1.7 | 0.11 | 0.17 | 0.17 | 95 | 1013.5 |
| 20260830234004 | 60 | 207 | 0.0 | 1.7 | 0.11 | 0.16 | 0.16 | 95 | 1013.2 |
| 20260830233505 | 60 | 269 | 0.0 | 1.7 | 0.12 | 0.16 | 0.16 | 94 | 1013.2 |
| 20260830233005 | 60 | 277 | 0.9 | 2.6 | 0.12 | 0.15 | 0.15 | 94 | 1013.3 |
| 20260830231005 | 61 | 267 | 0.0 | 0.0 | 0.10 | 0.11 | 0.11 | 94 | 1013.3 |
| 20260830230505 | 61 | 249 | 0.0 | 0.0 | 0.10 | 0.10 | 0.10 | 94 | 1013.2 |
| 20260830230005 | 61 | 251 | 0.0 | 0.0 | 0.09 | 0.09 | 0.09 | 94 | 1013.4 |
| 20260830224506 | 62 | 252 | 0.0 | 0.0 | 0.06 | 0.06 | 0.06 | 93 | 1012.9 |
| 20260830224005 | 62 | 252 | 0.0 | 0.0 | 0.05 | 0.05 | 0.05 | 92 | 1013.2 |
| 20260830223504 | 62 | 254 | 0.0 | 0.0 | 0.04 | 0.04 | 0.04 | 92 | 1013.1 |
| 20260830221005 | 63 | 241 | 0.0 | 1.7 | 0.01 | 0.01 | 0.01 | 86 | 1013.3 |
| 20260830220505 | 63 | 276 | 0.0 | 0.0 | 0.00 | 0.00 | 0.00 | 85 | 1013.3 |
| 20260830220005 | 63 | 276 | 0.0 | 0.0 | 0.00 | 0.00 | 0.00 | 84 | 1013.5 |
| 20260830214506 | 62 | 276 | 0.0 | 0.0 | 0.00 | 0.00 | 0.00 | 84 | 1013.2 |
| 20260830214005 | 62 | 276 | 0.0 | 0.0 | 0.00 | 0.00 | 0.00 | 84 | 1013.0 |
| 20260830213506 | 62 | 276 | 0.0 | 0.0 | 0.00 | 0.00 | 0.00 | 84 | 1013.2 |
| 20260830213005 | 62 | 276 | 0.0 | 0.0 | 0.00 | 0.00 | 0.00 | 84 | 1013.2 |
| 20260830211504 | 62 | 276 | 0.0 | 0.0 | 0.00 | 0.00 | 0.00 | 83 | 1012.9 |
| 20260830211004 | 63 | 276 | 0.0 | 0.0 | 0.00 | 0.00 | 0.00 | 83 | 1012.9 |
| 20260830210505 | 62 | 276 | 0.0 | 0.0 | 0.00 | 0.00 | 0.00 | 82 | 1013.2 |
| 20260830210004 | 62 | 276 | 0.0 | 0.0 | 0.00 | 0.00 | 0.00 | 83 | 1013.2 |
| 20260830204004 | 63 | 275 | 0.0 | 0.0 | 0.00 | 0.00 | 0.00 | 81 | 1013.2 |
| 20260830203504 | 63 | 275 | 0.0 | 0.0 | 0.00 | 0.00 | 0.00 | 80 | 1013.2 |
| 20260830203005 | 63 | 276 | 0.0 | 0.0 | 0.00 | 0.00 | 0.00 | 81 | 1013.2 |
| 20260830201504 | 64 | 275 | 0.0 | 0.0 | 0.00 | 0.00 | 0.00 | 79 | 1013.2 |
| 20260830201004 | 64 | 275 | 0.0 | 0.0 | 0.00 | 0.00 | 0.00 | 79 | 1013.2 |
| 20260830200506 | 64 | 272 | 0.0 | 0.0 | 0.00 | 0.00 | 0.00 | 79 | 1013.2 |
| 20260830200005 | 64 | 272 | 0.0 | 2.6 | 0.00 | 0.00 | 0.00 | 77 | 1013.0 |
| 20260830194505 | 64 | 275 | 0.0 | 0.0 | 0.00 | 0.00 | 0.00 | 80 | 1013.2 |
| 20260830194004 | 64 | 275 | 0.0 | 0.0 | 0.00 | 0.00 | 0.00 | 79 | 1012.9 |
| 20260830193504 | 64 | 275 | 0.0 | 0.0 | 0.00 | 0.00 | 0.00 | 79 | 1013.2 |
| 20260830193004 | 64 | 275 | 0.0 | 0.0 | 0.00 | 0.00 | 0.00 | 79 | 1013.4 |
| 20260830191504 | 65 | 275 | 0.0 | 0.0 | 0.00 | 0.00 | 0.00 | 76 | 1013.5 |
| 20260830191005 | 66 | 276 | 0.0 | 0.0 | 0.00 | 0.00 | 0.00 | 75 | 1013.5 |
| 20260830190505 | 65 | 276 | 0.0 | 0.0 | 0.00 | 0.00 | 0.00 | 74 | 1013.2 |
| 20260830190005 | 66 | 276 | 0.0 | 0.0 | 0.00 | 0.00 | 0.00 | 75 | 1013.2 |
| 20260830184004 | 66 | 276 | 0.0 | 0.0 | 0.00 | 0.00 | 0.00 | 73 | 1013.3 |
| 20260830183505 | 67 | 276 | 0.0 | 0.0 | 0.00 | 0.00 | 0.00 | 72 | 1013.2 |
| 20260830181505 | 69 | 274 | 0.9 | 1.7 | 0.00 | 0.00 | 0.00 | 68 | 1013.1 |
| 20260830181005 | 69 | 274 | 0.9 | 1.7 | 0.00 | 0.00 | 0.00 | 66 | 1013.2 |
| 20260830180506 | 69 | 274 | 0.9 | 1.7 | 0.00 | 0.00 | 0.00 | 66 | 1013.2 |
| 20260830180005 | 70 | 272 | 1.7 | 1.7 | 0.00 | 0.00 | 0.00 | 65 | 1013.2 |
| 20260830174506 | 72 | 268 | 0.0 | 1.7 | 0.00 | 0.00 | 0.00 | 61 | 1013.0 |
| 20260830174005 | 72 | 273 | 0.0 | 0.0 | 0.00 | 0.00 | 0.00 | 60 | 1013.2 |
| 20260830173505 | 72 | 250 | 0.0 | 2.6 | 0.00 | 0.00 | 0.00 | 59 | 1013.3 |
| 20260830173005 | 73 | 255 | 0.9 | 2.6 | 0.00 | 0.00 | 0.00 | 58 | 1013.2 |
| 20260830171504 | 74 | 254 | 0.9 | 6.1 | 0.00 | 0.00 | 0.00 | 56 | 1013.2 |
| 20260830171004 | 74 | 248 | 2.6 | 6.1 | 0.00 | 0.00 | 0.00 | 55 | 1013.5 |
| 20260830170505 | 74 | 276 | 3.5 | 6.1 | 0.00 | 0.00 | 0.00 | 54 | 1013.2 |
| 20260830170004 | 74 | 292 | 4.3 | 8.7 | 0.00 | 0.00 | 0.00 | 53 | 1013.5 |
| 20260830164505 | 75 | 296 | 4.3 | 8.7 | 0.00 | 0.00 | 0.00 | 52 | 1013.5 |
| 20260830164004 | 75 | 288 | 4.3 | 8.7 | 0.00 | 0.00 | 0.00 | 52 | 1013.2 |
| 20260830163504 | 75 | 267 | 1.7 | 6.1 | 0.00 | 0.00 | 0.00 | 53 | 1013.2 |
| 20260830163005 | 76 | 286 | 2.6 | 12.2 | 0.00 | 0.00 | 0.00 | 52 | 1013.5 |
| 20260830161505 | 76 | 284 | 5.2 | 8.7 | 0.00 | 0.00 | 0.00 | 51 | 1013.2 |
| 20260830161005 | 76 | 295 | 5.2 | 8.7 | 0.00 | 0.00 | 0.00 | 50 | 1013.2 |
| 20260830160505 | 76 | 280 | 4.3 | 8.7 | 0.00 | 0.00 | 0.00 | 51 | 1013.2 |
| 20260830160006 | 76 | 273 | 4.3 | 8.7 | 0.00 | 0.00 | 0.00 | 51 | 1013.2 |
| 20260830154505 | 77 | 257 | 2.6 | 4.3 | 0.00 | 0.00 | 0.00 | 51 | 1013.2 |
| 20260830154004 | 77 | 262 | 1.7 | 8.7 | 0.00 | 0.00 | 0.00 | 50 | 1013.2 |
| 20260830153004 | 78 | 284 | 6.1 | 11.3 | 0.00 | 0.00 | 0.00 | 49 | 1012.9 |
| 20260830151504 | 77 | 300 | 5.2 | 8.7 | 0.00 | 0.00 | 0.00 | 49 | 1013.2 |
| 20260830151005 | 77 | 263 | 5.2 | 7.0 | 0.00 | 0.00 | 0.00 | 49 | 1013.2 |
| 20260830150505 | 79 | 284 | 5.2 | 7.0 | 0.00 | 0.00 | 0.00 | 48 | 1013.2 |
| 20260830150004 | 79 | 265 | 4.3 | 11.3 | 0.00 | 0.00 | 0.00 | 47 | 1013.2 |
| 20260830144504 | 77 | 265 | 5.2 | 8.7 | 0.00 | 0.00 | 0.00 | 48 | 1013.5 |
| 20260830144004 | 77 | 262 | 7.8 | 12.2 | 0.00 | 0.00 | 0.00 | 50 | 1013.5 |
| 20260830143504 | 77 | 308 | 4.3 | 13.0 | 0.00 | 0.00 | 0.00 | 49 | 1013.5 |
| 20260830143004 | 78 | 291 | 3.5 | 12.2 | 0.00 | 0.00 | 0.00 | 50 | 1013.5 |
| 20260830141504 | 77 | 272 | 7.0 | 12.2 | 0.00 | 0.00 | 0.00 | 50 | 1013.5 |
| 20260830141005 | 78 | 292 | 6.1 | 8.7 | 0.00 | 0.00 | 0.00 | 51 | 1013.5 |
| 20260830140004 | 78 | 283 | 1.7 | 11.3 | 0.00 | 0.00 | 0.00 | 50 | 1013.5 |
| 20260830134504 | 77 | 2 | 4.3 | 7.0 | 0.00 | 0.00 | 0.00 | 53 | 1013.5 |
| 20260830133504 | 77 | 295 | 6.1 | 12.2 | 0.00 | 0.00 | 0.00 | 52 | 1013.5 |